Wetterdaten: Donnerstag, 12.03.2015
Datum Zeit Temp. A. Feuchte A. Luftdruck Regen Wind Richtung Richtung Sonnenschein ET UV Solar Taupunkt Windchill Windben Empfang
12.03.2015 00:00 1,7 C 68 % 1028,6 hPa 0,0 l/m 0,0 km/h (0 Bft) S-SW 205 0 min 0,000 mm 0,0 UV-I 0 W/m -3,6 C 1,7 C 0,0 km/h (0 Bft) 0,00 %
12.03.2015 00:15 1,6 C 70 % 1028,5 hPa 0,0 l/m 0,0 km/h (0 Bft) S-SW 205 0 min 0,000 mm 0,0 UV-I 0 W/m -3,3 C 1,6 C 0,0 km/h (0 Bft) 0,00 %
12.03.2015 00:30 1,3 C 71 % 1028,6 hPa 0,0 l/m 0,0 km/h (0 Bft) S-SW 205 0 min 0,000 mm 0,0 UV-I 0 W/m -3,4 C 1,3 C 0,0 km/h (0 Bft) 0,00 %
12.03.2015 00:45 1,0 C 71 % 1028,6 hPa 0,0 l/m 0,0 km/h (0 Bft) S 173 0 min 0,000 mm 0,0 UV-I 0 W/m -3,7 C 1,0 C 0,0 km/h (0 Bft) 0,00 %
12.03.2015 01:00 1,0 C 70 % 1028,3 hPa 0,0 l/m 0,0 km/h (0 Bft) S-SW 197 0 min 0,000 mm 0,0 UV-I 0 W/m -3,8 C 1,0 C 0,0 km/h (0 Bft) 0,00 %
12.03.2015 01:15 1,1 C 70 % 1028,5 hPa 0,0 l/m 0,0 km/h (0 Bft) SW 223 0 min 0,000 mm 0,0 UV-I 0 W/m -3,7 C 1,1 C 0,0 km/h (0 Bft) 0,00 %
12.03.2015 01:30 1,1 C 71 % 1028,7 hPa 0,0 l/m 0,0 km/h (0 Bft) S-SW 199 0 min 0,000 mm 0,0 UV-I 0 W/m -3,6 C 1,1 C 0,0 km/h (0 Bft) 0,00 %
12.03.2015 01:45 1,1 C 70 % 1028,7 hPa 0,0 l/m 0,0 km/h (0 Bft) S-SW 194 0 min 0,000 mm 0,0 UV-I 0 W/m -3,7 C 1,1 C 0,0 km/h (0 Bft) 0,00 %
12.03.2015 02:00 1,2 C 70 % 1028,6 hPa 0,0 l/m 0,4 km/h (0 Bft) S-SW 211 0 min 0,000 mm 0,0 UV-I 0 W/m -3,7 C 1,2 C 4,0 km/h (1 Bft) 0,00 %
12.03.2015 02:15 1,3 C 69 % 1028,7 hPa 0,0 l/m 0,0 km/h (0 Bft) W-SW 252 0 min 0,000 mm 0,0 UV-I 0 W/m -3,7 C 1,3 C 0,0 km/h (0 Bft) 0,00 %
12.03.2015 02:30 1,5 C 65 % 1028,5 hPa 0,0 l/m 1,4 km/h (1 Bft) W-SW 256 0 min 0,000 mm 0,0 UV-I 0 W/m -4,3 C 1,5 C 4,0 km/h (1 Bft) 0,00 %
12.03.2015 02:45 1,6 C 65 % 1028,7 hPa 0,0 l/m 0,0 km/h (0 Bft) SW 220 0 min 0,000 mm 0,0 UV-I 0 W/m -4,3 C 1,6 C 0,0 km/h (0 Bft) 0,00 %
12.03.2015 03:00 1,6 C 64 % 1028,6 hPa 0,0 l/m 2,2 km/h (1 Bft) W-SW 252 0 min 0,000 mm 0,0 UV-I 0 W/m -4,5 C 1,6 C 4,0 km/h (1 Bft) 0,00 %
12.03.2015 03:15 1,7 C 66 % 1028,6 hPa 0,0 l/m 0,4 km/h (0 Bft) S 182 0 min 0,000 mm 0,0 UV-I 0 W/m -4,0 C 1,7 C 4,0 km/h (1 Bft) 0,00 %
12.03.2015 03:30 1,6 C 67 % 1028,7 hPa 0,0 l/m 2,2 km/h (1 Bft) W-SW 242 0 min 0,000 mm 0,0 UV-I 0 W/m -3,9 C 1,6 C 7,9 km/h (2 Bft) 0,00 %
12.03.2015 03:45 1,6 C 68 % 1028,8 hPa 0,0 l/m 0,0 km/h (0 Bft) SW 228 0 min 0,000 mm 0,0 UV-I 0 W/m -3,7 C 1,6 C 0,0 km/h (0 Bft) 0,00 %
12.03.2015 04:00 1,5 C 69 % 1028,9 hPa 0,0 l/m 0,0 km/h (0 Bft) SW 217 0 min 0,000 mm 0,0 UV-I 0 W/m -3,6 C 1,5 C 0,0 km/h (0 Bft) 0,00 %
12.03.2015 04:15 1,4 C 70 % 1029,2 hPa 0,0 l/m 0,0 km/h (0 Bft) S-SW 206 0 min 0,000 mm 0,0 UV-I 0 W/m -3,5 C 1,4 C 0,0 km/h (0 Bft) 0,00 %
12.03.2015 04:30 1,4 C 71 % 1029,1 hPa 0,0 l/m 0,0 km/h (0 Bft) SW 216 0 min 0,000 mm 0,0 UV-I 0 W/m -3,3 C 1,4 C 0,0 km/h (0 Bft) 0,00 %
12.03.2015 04:45 1,3 C 70 % 1029,0 hPa 0,0 l/m 0,0 km/h (0 Bft) S 182 0 min 0,000 mm 0,0 UV-I 0 W/m -3,6 C 1,3 C 0,0 km/h (0 Bft) 0,00 %
12.03.2015 05:00 1,3 C 70 % 1029,1 hPa 0,0 l/m 0,0 km/h (0 Bft) S-SW 212 0 min 0,000 mm 0,0 UV-I 0 W/m -3,6 C 1,3 C 0,0 km/h (0 Bft) 0,00 %
12.03.2015 05:15 1,3 C 70 % 1029,2 hPa 0,0 l/m 0,0 km/h (0 Bft) S-SW 200 0 min 0,000 mm 0,0 UV-I 0 W/m -3,6 C 1,3 C 0,0 km/h (0 Bft) 0,00 %
12.03.2015 05:30 1,2 C 70 % 1028,9 hPa 0,0 l/m 0,0 km/h (0 Bft) W-SW 250 0 min 0,000 mm 0,0 UV-I 0 W/m -3,7 C 1,2 C 0,0 km/h (0 Bft) 0,00 %
12.03.2015 05:45 1,3 C 70 % 1029,2 hPa 0,0 l/m 3,2 km/h (1 Bft) W-SW 256 0 min 0,000 mm 0,0 UV-I 0 W/m -3,6 C 1,3 C 4,0 km/h (1 Bft) 0,00 %
12.03.2015 06:00 1,3 C 70 % 1029,3 hPa 0,0 l/m 0,0 km/h (0 Bft) S-SW 204 0 min 0,000 mm 0,0 UV-I 0 W/m -3,6 C 1,3 C 0,0 km/h (0 Bft) 0,00 %
12.03.2015 06:15 1,4 C 70 % 1029,3 hPa 0,0 l/m 0,4 km/h (0 Bft) W-SW 255 0 min 0,000 mm 0,0 UV-I 0 W/m -3,5 C 1,4 C 4,0 km/h (1 Bft) 0,00 %
12.03.2015 06:30 1,4 C 70 % 1029,0 hPa 0,0 l/m 0,0 km/h (0 Bft) SW 219 0 min 0,000 mm 0,0 UV-I 0 W/m -3,5 C 1,4 C 0,0 km/h (0 Bft) 0,00 %
12.03.2015 06:45 1,4 C 68 % 1029,0 hPa 0,0 l/m 1,4 km/h (1 Bft) W-SW 256 0 min 0,000 mm 0,0 UV-I 0 W/m -3,8 C 1,4 C 4,0 km/h (1 Bft) 0,00 %
12.03.2015 07:00 1,5 C 68 % 1029,3 hPa 0,0 l/m 0,0 km/h (0 Bft) W-SW 255 0 min 0,000 mm 0,0 UV-I 1 W/m -3,7 C 1,5 C 0,0 km/h (0 Bft) 0,00 %
12.03.2015 07:15 1,6 C 68 % 1029,1 hPa 0,0 l/m 0,0 km/h (0 Bft) W-SW 252 0 min 0,000 mm 0,0 UV-I 11 W/m -3,7 C 1,6 C 0,0 km/h (0 Bft) 0,00 %
12.03.2015 07:30 1,8 C 68 % 1029,2 hPa 0,0 l/m 1,8 km/h (1 Bft) W-SW 252 0 min 0,000 mm 0,0 UV-I 29 W/m -3,5 C 1,8 C 4,0 km/h (1 Bft) 0,00 %
12.03.2015 07:45 1,9 C 68 % 1029,4 hPa 0,0 l/m 0,0 km/h (0 Bft) SW 231 0 min 0,000 mm 0,0 UV-I 34 W/m -3,4 C 1,9 C 0,0 km/h (0 Bft) 0,00 %
12.03.2015 08:00 2,0 C 68 % 1029,1 hPa 0,0 l/m 0,0 km/h (0 Bft) S-SW 195 0 min 0,000 mm 1,0 UV-I 45 W/m -3,3 C 2,0 C 0,0 km/h (0 Bft) 0,00 %
12.03.2015 08:15 2,3 C 67 % 1029,2 hPa 0,0 l/m 0,0 km/h (0 Bft) S-SW 208 0 min 0,000 mm 1,0 UV-I 72 W/m -3,2 C 2,3 C 0,0 km/h (0 Bft) 0,00 %
12.03.2015 08:30 2,5 C 71 % 1029,1 hPa 0,0 l/m 2,2 km/h (1 Bft) W-SW 255 0 min 0,000 mm 1,0 UV-I 82 W/m -2,2 C 2,5 C 4,0 km/h (1 Bft) 0,00 %
12.03.2015 08:45 2,7 C 72 % 1028,7 hPa 0,0 l/m 0,0 km/h (0 Bft) SW 222 0 min 0,000 mm 1,0 UV-I 81 W/m -1,8 C 2,7 C 0,0 km/h (0 Bft) 0,00 %
12.03.2015 09:00 3,0 C 70 % 1028,7 hPa 0,0 l/m 0,4 km/h (0 Bft) W-SW 253 0 min 0,000 mm 1,0 UV-I 112 W/m -1,9 C 3,0 C 4,0 km/h (1 Bft) 0,00 %
12.03.2015 09:15 3,1 C 68 % 1028,7 hPa 0,0 l/m 0,0 km/h (0 Bft) SW 221 0 min 0,000 mm 1,0 UV-I 103 W/m -2,2 C 3,1 C 0,0 km/h (0 Bft) 0,00 %
12.03.2015 09:30 3,3 C 68 % 1028,5 hPa 0,0 l/m 0,0 km/h (0 Bft) S-SW 210 0 min 0,000 mm 1,0 UV-I 114 W/m -2,0 C 3,3 C 0,0 km/h (0 Bft) 0,00 %
12.03.2015 09:45 3,5 C 65 % 1028,3 hPa 0,0 l/m 0,0 km/h (0 Bft) S-SW 209 0 min 0,000 mm 2,0 UV-I 144 W/m -2,4 C 3,5 C 0,0 km/h (0 Bft) 0,00 %
12.03.2015 10:00 4,6 C 64 % 1027,8 hPa 0,0 l/m 0,0 km/h (0 Bft) W-SW 255 0 min 0,000 mm 2,0 UV-I 197 W/m -1,6 C 4,6 C 0,0 km/h (0 Bft) 0,00 %
12.03.2015 10:15 4,6 C 62 % 1027,5 hPa 0,0 l/m 2,9 km/h (1 Bft) W-SW 255 0 min 0,000 mm 2,0 UV-I 198 W/m -2,0 C 4,6 C 4,0 km/h (1 Bft) 0,00 %
12.03.2015 10:30 4,7 C 62 % 1027,5 hPa 0,0 l/m 5,4 km/h (1 Bft) W-SW 252 0 min 0,000 mm 2,0 UV-I 236 W/m -1,9 C 4,7 C 7,9 km/h (2 Bft) 0,00 %
12.03.2015 10:45 4,8 C 61 % 1027,3 hPa 0,0 l/m 0,7 km/h (0 Bft) W-SW 252 0 min 0,000 mm 2,0 UV-I 206 W/m -2,1 C 4,8 C 4,0 km/h (1 Bft) 0,00 %
12.03.2015 11:00 5,0 C 61 % 1027,2 hPa 0,0 l/m 0,4 km/h (0 Bft) W-SW 251 0 min 0,000 mm 3,0 UV-I 238 W/m -1,9 C 5,0 C 4,0 km/h (1 Bft) 0,00 %
12.03.2015 11:15 6,0 C 57 % 1026,8 hPa 0,0 l/m 4,7 km/h (1 Bft) W-SW 255 0 min 0,000 mm 3,0 UV-I 303 W/m -1,9 C 6,0 C 7,9 km/h (2 Bft) 0,00 %
12.03.2015 11:30 6,1 C 57 % 1026,6 hPa 0,0 l/m 2,9 km/h (1 Bft) W-SW 256 0 min 0,000 mm 3,0 UV-I 242 W/m -1,8 C 6,1 C 4,0 km/h (1 Bft) 0,00 %
12.03.2015 11:45 6,0 C 57 % 1026,5 hPa 0,0 l/m 0,0 km/h (0 Bft) W-SW 253 0 min 0,000 mm 3,0 UV-I 282 W/m -1,9 C 6,0 C 0,0 km/h (0 Bft) 0,00 %
12.03.2015 12:00 6,5 C 55 % 1026,3 hPa 0,0 l/m 1,8 km/h (1 Bft) S-SW 198 0 min 0,000 mm 3,0 UV-I 298 W/m -1,9 C 6,5 C 4,0 km/h (1 Bft) 0,00 %
12.03.2015 12:15 6,7 C 55 % 1026,2 hPa 0,0 l/m 0,0 km/h (0 Bft) SW 222 0 min 0,000 mm 2,0 UV-I 327 W/m -1,7 C 6,7 C 0,0 km/h (0 Bft) 0,00 %
12.03.2015 12:30 6,4 C 55 % 1026,3 hPa 0,0 l/m 2,9 km/h (1 Bft) W-SW 256 0 min 0,000 mm 2,0 UV-I 228 W/m -2,0 C 6,4 C 4,0 km/h (1 Bft) 0,00 %
12.03.2015 12:45 6,3 C 55 % 1026,4 hPa 0,0 l/m 0,4 km/h (0 Bft) W-SW 252 0 min 0,000 mm 2,0 UV-I 189 W/m -2,1 C 6,3 C 4,0 km/h (1 Bft) 0,00 %
12.03.2015 13:00 6,3 C 57 % 1026,1 hPa 0,0 l/m 1,8 km/h (1 Bft) W-SW 254 0 min 0,000 mm 2,0 UV-I 184 W/m -1,6 C 6,3 C 4,0 km/h (1 Bft) 0,00 %
12.03.2015 13:15 6,2 C 55 % 1026,3 hPa 0,0 l/m 0,4 km/h (0 Bft) W-SW 252 0 min 0,000 mm 2,0 UV-I 189 W/m -2,2 C 6,2 C 4,0 km/h (1 Bft) 0,00 %
12.03.2015 13:30 6,1 C 58 % 1026,4 hPa 0,0 l/m 0,0 km/h (0 Bft) W-SW 256 0 min 0,000 mm 1,0 UV-I 136 W/m -1,5 C 6,1 C 0,0 km/h (0 Bft) 0,00 %
12.03.2015 13:45 5,9 C 57 % 1026,2 hPa 0,0 l/m 4,0 km/h (1 Bft) W-SW 252 0 min 0,000 mm 1,0 UV-I 102 W/m -2,0 C 5,9 C 4,0 km/h (1 Bft) 0,00 %
12.03.2015 14:00 5,8 C 59 % 1026,4 hPa 0,0 l/m 0,0 km/h (0 Bft) S-SW 213 0 min 0,000 mm 1,0 UV-I 97 W/m -1,6 C 5,8 C 0,0 km/h (0 Bft) 0,00 %
12.03.2015 14:15 5,8 C 58 % 1026,2 hPa 0,0 l/m 0,0 km/h (0 Bft) SW 221 0 min 0,000 mm 1,0 UV-I 106 W/m -1,8 C 5,8 C 0,0 km/h (0 Bft) 0,00 %
12.03.2015 14:30 5,9 C 58 % 1026,2 hPa 0,0 l/m 0,0 km/h (0 Bft) W 268 0 min 0,000 mm 1,0 UV-I 101 W/m -1,7 C 5,9 C 0,0 km/h (0 Bft) 0,00 %
12.03.2015 14:45 5,7 C 59 % 1026,2 hPa 0,0 l/m 0,0 km/h (0 Bft) S-SW 197 0 min 0,000 mm 1,0 UV-I 77 W/m -1,7 C 5,7 C 0,0 km/h (0 Bft) 0,00 %
12.03.2015 15:00 5,6 C 59 % 1026,1 hPa 0,0 l/m 0,0 km/h (0 Bft) S 179 0 min 0,000 mm 1,0 UV-I 65 W/m -1,8 C 5,6 C 0,0 km/h (0 Bft) 0,00 %
12.03.2015 15:15 5,7 C 60 % 1025,9 hPa 0,0 l/m 0,0 km/h (0 Bft) SW 229 0 min 0,000 mm 1,0 UV-I 82 W/m -1,4 C 5,7 C 0,0 km/h (0 Bft) 0,00 %
12.03.2015 15:30 5,7 C 59 % 1025,9 hPa 0,0 l/m 0,0 km/h (0 Bft) S-SW 196 0 min 0,000 mm 1,0 UV-I 63 W/m -1,7 C 5,7 C 0,0 km/h (0 Bft) 0,00 %
12.03.2015 15:45 5,7 C 59 % 1025,8 hPa 0,0 l/m 0,0 km/h (0 Bft) S-SW 211 0 min 0,000 mm 1,0 UV-I 74 W/m -1,7 C 5,7 C 0,0 km/h (0 Bft) 0,00 %
12.03.2015 16:00 5,9 C 59 % 1026,0 hPa 0,0 l/m 0,0 km/h (0 Bft) S-SW 204 0 min 0,000 mm 1,0 UV-I 79 W/m -1,5 C 5,9 C 0,0 km/h (0 Bft) 0,00 %
12.03.2015 16:15 5,7 C 57 % 1026,0 hPa 0,0 l/m 0,0 km/h (0 Bft) SW 218 0 min 0,000 mm 1,0 UV-I 72 W/m -2,1 C 5,7 C 0,0 km/h (0 Bft) 0,00 %
12.03.2015 16:30 5,3 C 60 % 1026,4 hPa 0,0 l/m 0,0 km/h (0 Bft) W-SW 253 0 min 0,000 mm 0,0 UV-I 22 W/m -1,8 C 5,3 C 0,0 km/h (0 Bft) 0,00 %
12.03.2015 16:45 5,1 C 56 % 1026,6 hPa 0,0 l/m 0,0 km/h (0 Bft) W-SW 255 0 min 0,000 mm 0,0 UV-I 11 W/m -2,9 C 5,1 C 0,0 km/h (0 Bft) 0,00 %
12.03.2015 17:00 5,0 C 56 % 1026,5 hPa 0,0 l/m 0,0 km/h (0 Bft) SW 228 0 min 0,000 mm 0,0 UV-I 10 W/m -3,0 C 5,0 C 0,0 km/h (0 Bft) 0,00 %
12.03.2015 17:15 4,9 C 56 % 1026,5 hPa 0,0 l/m 0,0 km/h (0 Bft) SW 228 0 min 0,000 mm 0,0 UV-I 18 W/m -3,1 C 4,9 C 0,0 km/h (0 Bft) 0,00 %
12.03.2015 17:30 4,7 C 59 % 1026,5 hPa 0,0 l/m 0,0 km/h (0 Bft) SW 228 0 min 0,000 mm 0,0 UV-I 19 W/m -2,6 C 4,7 C 0,0 km/h (0 Bft) 0,00 %
12.03.2015 17:45 4,4 C 64 % 1026,5 hPa 0,0 l/m 0,0 km/h (0 Bft) SW 228 0 min 0,000 mm 0,0 UV-I 9 W/m -1,8 C 4,4 C 0,0 km/h (0 Bft) 0,00 %
12.03.2015 18:00 4,1 C 64 % 1026,7 hPa 0,0 l/m 0,0 km/h (0 Bft) SW 227 0 min 0,000 mm 0,0 UV-I 0 W/m -2,1 C 4,1 C 0,0 km/h (0 Bft) 0,00 %
12.03.2015 18:15 3,7 C 65 % 1026,9 hPa 0,0 l/m 0,0 km/h (0 Bft) S 185 0 min 0,000 mm 0,0 UV-I 0 W/m -2,3 C 3,7 C 0,0 km/h (0 Bft) 0,00 %
12.03.2015 18:30 3,4 C 65 % 1026,9 hPa 0,0 l/m 0,0 km/h (0 Bft) S 186 0 min 0,000 mm 0,0 UV-I 0 W/m -2,5 C 3,4 C 0,0 km/h (0 Bft) 0,00 %
12.03.2015 18:45 3,2 C 65 % 1026,9 hPa 0,0 l/m 0,0 km/h (0 Bft) S 186 0 min 0,000 mm 0,0 UV-I 0 W/m -2,7 C 3,2 C 0,0 km/h (0 Bft) 0,00 %
12.03.2015 19:00 2,9 C 66 % 1027,0 hPa 0,0 l/m 0,0 km/h (0 Bft) S 186 0 min 0,000 mm 0,0 UV-I 0 W/m -2,8 C 2,9 C 0,0 km/h (0 Bft) 0,00 %
12.03.2015 19:15 2,6 C 69 % 1027,3 hPa 0,0 l/m 0,0 km/h (0 Bft) SW 224 0 min 0,000 mm 0,0 UV-I 0 W/m -2,5 C 2,6 C 0,0 km/h (0 Bft) 0,00 %
12.03.2015 19:30 2,8 C 65 % 1027,3 hPa 0,0 l/m 0,0 km/h (0 Bft) SW 216 0 min 0,000 mm 0,0 UV-I 0 W/m -3,1 C 2,8 C 0,0 km/h (0 Bft) 0,00 %
12.03.2015 19:45 3,0 C 65 % 1027,1 hPa 0,0 l/m 0,0 km/h (0 Bft) S-SW 209 0 min 0,000 mm 0,0 UV-I 0 W/m -2,9 C 3,0 C 0,0 km/h (0 Bft) 0,00 %
12.03.2015 20:00 2,9 C 63 % 1027,1 hPa 0,0 l/m 0,0 km/h (0 Bft) S-SW 209 0 min 0,000 mm 0,0 UV-I 0 W/m -3,4 C 2,9 C 0,0 km/h (0 Bft) 0,00 %
12.03.2015 20:15 2,9 C 65 % 1027,2 hPa 0,0 l/m 0,0 km/h (0 Bft) S-SW 209 0 min 0,000 mm 0,0 UV-I 0 W/m -3,0 C 2,9 C 0,0 km/h (0 Bft) 0,00 %
12.03.2015 20:30 2,8 C 65 % 1027,4 hPa 0,0 l/m 0,0 km/h (0 Bft) S 184 0 min 0,000 mm 0,0 UV-I 0 W/m -3,1 C 2,8 C 0,0 km/h (0 Bft) 0,00 %
12.03.2015 20:45 2,9 C 65 % 1026,9 hPa 0,0 l/m 0,0 km/h (0 Bft) W-SW 253 0 min 0,000 mm 0,0 UV-I 0 W/m -3,0 C 2,9 C 0,0 km/h (0 Bft) 0,00 %
12.03.2015 21:00 3,0 C 65 % 1027,1 hPa 0,0 l/m 0,0 km/h (0 Bft) S 189 0 min 0,000 mm 0,0 UV-I 0 W/m -2,9 C 3,0 C 0,0 km/h (0 Bft) 0,00 %
12.03.2015 21:15 2,7 C 65 % 1027,2 hPa 0,0 l/m 0,0 km/h (0 Bft) S 181 0 min 0,000 mm 0,0 UV-I 0 W/m -3,2 C 2,7 C 0,0 km/h (0 Bft) 0,00 %
12.03.2015 21:30 2,5 C 66 % 1027,0 hPa 0,0 l/m 0,0 km/h (0 Bft) S 182 0 min 0,000 mm 0,0 UV-I 0 W/m -3,2 C 2,5 C 0,0 km/h (0 Bft) 0,00 %
12.03.2015 21:45 2,4 C 63 % 1027,2 hPa 0,0 l/m 0,0 km/h (0 Bft) S 185 0 min 0,000 mm 0,0 UV-I 0 W/m -3,9 C 2,4 C 0,0 km/h (0 Bft) 0,00 %
12.03.2015 22:00 2,3 C 65 % 1026,9 hPa 0,0 l/m 0,0 km/h (0 Bft) S 185 0 min 0,000 mm 0,0 UV-I 0 W/m -3,6 C 2,3 C 0,0 km/h (0 Bft) 0,00 %
12.03.2015 22:15 2,2 C 66 % 1026,9 hPa 0,0 l/m 0,0 km/h (0 Bft) S-SW 192 0 min 0,000 mm 0,0 UV-I 0 W/m -3,5 C 2,2 C 0,0 km/h (0 Bft) 0,00 %
12.03.2015 22:30 2,3 C 69 % 1026,7 hPa 0,0 l/m 0,0 km/h (0 Bft) S 174 0 min 0,000 mm 0,0 UV-I 0 W/m -2,8 C 2,3 C 0,0 km/h (0 Bft) 0,00 %
12.03.2015 22:45 2,6 C 66 % 1026,8 hPa 0,0 l/m 0,0 km/h (0 Bft) S-SW 193 0 min 0,000 mm 0,0 UV-I 0 W/m -3,1 C 2,6 C 0,0 km/h (0 Bft) 0,00 %
12.03.2015 23:00 2,4 C 63 % 1026,4 hPa 0,0 l/m 0,0 km/h (0 Bft) S-SW 194 0 min 0,000 mm 0,0 UV-I 0 W/m -3,9 C 2,4 C 0,0 km/h (0 Bft) 0,00 %
12.03.2015 23:15 2,2 C 66 % 1026,3 hPa 0,0 l/m 0,0 km/h (0 Bft) S 188 0 min 0,000 mm 0,0 UV-I 0 W/m -3,5 C 2,2 C 0,0 km/h (0 Bft) 0,00 %
12.03.2015 23:30 2,0 C 69 % 1026,1 hPa 0,0 l/m 0,0 km/h (0 Bft) S-SW 195 0 min 0,000 mm 0,0 UV-I 0 W/m -3,1 C 2,0 C 0,0 km/h (0 Bft) 0,00 %
12.03.2015 23:45 1,8 C 68 % 1026,0 hPa 0,0 l/m 0,0 km/h (0 Bft) S 186 0 min 0,000 mm 0,0 UV-I 0 W/m -3,5 C 1,8 C 0,0 km/h (0 Bft) 0,00 %
_ Min-Zeit 00:45 12:00 15:45 - 00:00 - - - - - - 03:00 00:45 00:00 00:00
Minimum _ 1,0 C 55 % 1025,8 hPa - 0,0 km/h (0 Bft) - - - - - - -4,5 C 1,0 C 0,0 km/h (0 Bft) 0,00 %
_ Max-Zeit 12:15 08:45 07:45 00:00 10:30 - - 00:00 00:00 11:00 12:15 15:15 12:15 03:30 00:00
Maximum _ 6,7 C 72 % 1029,4 hPa 0,0 l/m 5,4 km/h
W-SW (1 Bft)
- - 0 min 0,000 mm 3,0 UV-I 327 W/m -1,4 C 6,7 C 7,9 km/h
W-SW (2 Bft)
0,00 %
Durchschnitt _ 3,3 C 64 % 1027,6 hPa #0,0 l/m 0,5 km/h (0 Bft) W-SW - #0 min. #0,000 mm 1,6 UV-I 120 W/m -2,8 C 3,3 C 1,1 km/h (1 Bft) 0,00 %